Вернуться в каталог

DELTA 1 DEB

LostUNKNOWN
NORAD 27480·DEBRIS·🇺🇸 United States

Запущен Jul 4, 1968 с Vandenberg Space Force Base

Loading…

Ближайшие Пролёты (ближайшие 24 часа)

TLE

УстаревшееSource: Space-Track

Эпоха: Jan 7, 2023, 03:20 UTC

1 27480U 68055H   23007.13932675 -.00000854  00000-0 -20629-1 0  9992
2 27480 121.2687 154.1881 1849911 194.4239 159.5833  9.42070872720678

Отслеживайте DELTA 1 DEB в реальном времени с AllMySat

Download on the App Store